| time (UTC) | temp F | wind direction | speed MPH | gust MPH | rain 1hr in | rain 24hr in | rain mn in | humidity % | barometer mb |
| 20260905024014 | 61 | 0 | 0.0 | 0.0 | 0.00 | 0.00 | 0.00 | 81 | 20.1 |
| 20260905023014 | 61 | 0 | 0.0 | 0.0 | 0.00 | 0.00 | 0.00 | 80 | 20.1 |
| 20260905022014 | 61 | 0 | 0.0 | 0.0 | 0.00 | 0.00 | 0.00 | 81 | 20.0 |
| 20260905021014 | 60 | 0 | 0.0 | 0.0 | 0.00 | 0.00 | 0.00 | 81 | 20.0 |
| 20260905020014 | 62 | 0 | 0.0 | 0.0 | 0.00 | 0.00 | 0.00 | 78 | 20.0 |
| 20260905015014 | 63 | 0 | 0.0 | 0.0 | 0.00 | 0.00 | 0.00 | 77 | 19.8 |
| 20260905014014 | 62 | 0 | 0.0 | 0.0 | 0.00 | 0.00 | 0.00 | 78 | 19.8 |
| 20260905013014 | 61 | 0 | 0.0 | 0.0 | 0.00 | 0.00 | 0.00 | 78 | 19.7 |
| 20260905012015 | 64 | 0 | 0.0 | 0.0 | 0.00 | 0.00 | 0.00 | 75 | 19.7 |
| 20260905011014 | 64 | 0 | 0.0 | 0.0 | 0.00 | 0.00 | 0.00 | 75 | 19.6 |
| 20260905010017 | 63 | 0 | 0.0 | 0.0 | 0.00 | 0.00 | 0.00 | 75 | 19.6 |
| 20260905005014 | 64 | 0 | 0.0 | 0.0 | 0.00 | 0.00 | 0.00 | 74 | 19.7 |
| 20260905004014 | 63 | 90 | 0.0 | 3.0 | 0.00 | 0.00 | 0.00 | 73 | 19.7 |
| 20260905003013 | 65 | 0 | 0.0 | 0.0 | 0.00 | 0.00 | 0.00 | 71 | 19.7 |
| 20260905002014 | 65 | 0 | 0.0 | 0.0 | 0.00 | 0.00 | 0.00 | 70 | 19.6 |
| 20260905001015 | 64 | 0 | 0.0 | 0.0 | 0.00 | 0.00 | 0.00 | 71 | 19.6 |
| 20260905000014 | 66 | 0 | 0.0 | 0.0 | 0.00 | 0.00 | 0.00 | 67 | 19.6 |
| 20260904235013 | 67 | 0 | 0.0 | 0.0 | 0.00 | 0.00 | 0.00 | 65 | 19.5 |
| 20260904234013 | 68 | 270 | 0.0 | 1.0 | 0.00 | 0.00 | 0.00 | 64 | 19.4 |
| 20260904233013 | 68 | 0 | 0.0 | 0.0 | 0.00 | 0.00 | 0.00 | 63 | 19.5 |
| 20260904231013 | 69 | 0 | 0.0 | 0.0 | 0.00 | 0.00 | 0.00 | 59 | 19.1 |
| 20260904230014 | 69 | 0 | 0.0 | 0.0 | 0.00 | 0.00 | 0.00 | 60 | 19.1 |
| 20260904225013 | 69 | 0 | 0.0 | 0.0 | 0.00 | 0.00 | 0.00 | 62 | 19.0 |
| 20260904223014 | 70 | 0 | 0.0 | 0.0 | 0.00 | 0.00 | 0.00 | 62 | 18.6 |
| 20260904222013 | 72 | 292 | 0.0 | 3.0 | 0.00 | 0.00 | 0.00 | 57 | 18.3 |
| 20260904221013 | 73 | 292 | 0.0 | 2.0 | 0.00 | 0.00 | 0.00 | 56 | 18.3 |
| 20260904220013 | 72 | 0 | 0.0 | 0.0 | 0.00 | 0.00 | 0.00 | 58 | 18.3 |
| 20260904214013 | 74 | 292 | 0.0 | 2.0 | 0.00 | 0.00 | 0.00 | 56 | 18.0 |
| 20260904213013 | 74 | 292 | 1.0 | 3.0 | 0.00 | 0.00 | 0.00 | 57 | 18.0 |
| 20260904212013 | 73 | 292 | 1.0 | 4.0 | 0.00 | 0.00 | 0.00 | 58 | 18.0 |
| 20260904211014 | 74 | 292 | 0.0 | 2.0 | 0.00 | 0.00 | 0.00 | 58 | 17.9 |
| 20260904210014 | 75 | 292 | 1.0 | 3.0 | 0.00 | 0.00 | 0.00 | 56 | 17.7 |
| 20260904205013 | 75 | 292 | 1.0 | 3.0 | 0.00 | 0.00 | 0.00 | 57 | 17.7 |
| 20260904204013 | 76 | 292 | 1.0 | 3.0 | 0.00 | 0.00 | 0.00 | 55 | 17.7 |
| 20260904203014 | 77 | 292 | 2.0 | 3.0 | 0.00 | 0.00 | 0.00 | 54 | 17.6 |
| 20260904201013 | 77 | 270 | 1.0 | 3.0 | 0.00 | 0.00 | 0.00 | 55 | 17.4 |
| 20260904200014 | 77 | 270 | 0.0 | 1.0 | 0.00 | 0.00 | 0.00 | 55 | 17.1 |
| 20260904195013 | 77 | 270 | 0.0 | 1.0 | 0.00 | 0.00 | 0.00 | 54 | 17.0 |
| 20260904194013 | 78 | 0 | 0.0 | 0.0 | 0.00 | 0.00 | 0.00 | 53 | 16.8 |
| 20260904193013 | 78 | 0 | 0.0 | 0.0 | 0.00 | 0.00 | 0.00 | 53 | 16.7 |
| 20260904192013 | 77 | 0 | 0.0 | 0.0 | 0.00 | 0.00 | 0.00 | 53 | 16.6 |
| 20260904191013 | 82 | 270 | 1.0 | 3.0 | 0.00 | 0.00 | 0.00 | 47 | 16.7 |
| 20260904190014 | 81 | 270 | 1.0 | 2.0 | 0.00 | 0.00 | 0.00 | 48 | 16.5 |
| 20260904184013 | 83 | 0 | 0.0 | 0.0 | 0.00 | 0.00 | 0.00 | 45 | 16.2 |
| 20260904183014 | 83 | 0 | 0.0 | 0.0 | 0.00 | 0.00 | 0.00 | 44 | 16.1 |
| 20260904182013 | 84 | 0 | 0.0 | 0.0 | 0.00 | 0.00 | 0.00 | 44 | 16.0 |
| 20260904180015 | 86 | 270 | 1.0 | 2.0 | 0.00 | 0.00 | 0.00 | 40 | 15.7 |
| 20260904175013 | 87 | 247 | 1.0 | 3.0 | 0.00 | 0.00 | 0.00 | 39 | 15.7 |
| 20260904174014 | 89 | 270 | 3.0 | 6.0 | 0.00 | 0.00 | 0.00 | 38 | 15.6 |
| 20260904173013 | 89 | 270 | 2.0 | 5.0 | 0.00 | 0.00 | 0.00 | 37 | 15.6 |
| 20260904172013 | 90 | 270 | 3.0 | 7.0 | 0.00 | 0.00 | 0.00 | 36 | 15.6 |
| 20260904171013 | 90 | 270 | 4.0 | 9.0 | 0.00 | 0.00 | 0.00 | 36 | 15.5 |
| 20260904170013 | 90 | 270 | 5.0 | 9.0 | 0.00 | 0.00 | 0.00 | 36 | 15.6 |
| 20260904165013 | 91 | 247 | 4.0 | 11.0 | 0.00 | 0.00 | 0.00 | 36 | 15.6 |
| 20260904164013 | 91 | 270 | 5.0 | 12.0 | 0.00 | 0.00 | 0.00 | 35 | 15.5 |
| 20260904163013 | 92 | 270 | 6.0 | 12.0 | 0.00 | 0.00 | 0.00 | 35 | 15.6 |
| 20260904161013 | 93 | 270 | 5.0 | 11.0 | 0.00 | 0.00 | 0.00 | 34 | 15.6 |
| 20260904160013 | 93 | 270 | 6.0 | 10.0 | 0.00 | 0.00 | 0.00 | 33 | 15.6 |
| 20260904154013 | 93 | 247 | 4.0 | 9.0 | 0.00 | 0.00 | 0.00 | 34 | 15.6 |
| 20260904153013 | 94 | 225 | 5.0 | 14.0 | 0.00 | 0.00 | 0.00 | 34 | 15.6 |
| 20260904151013 | 94 | 247 | 5.0 | 10.0 | 0.00 | 0.00 | 0.00 | 33 | 15.8 |
| 20260904145014 | 93 | 202 | 1.0 | 7.0 | 0.00 | 0.00 | 0.00 | 34 | 15.9 |
| 20260904144013 | 93 | 202 | 1.0 | 5.0 | 0.00 | 0.00 | 0.00 | 34 | 16.1 |
| 20260904142013 | 92 | 135 | 2.0 | 8.0 | 0.00 | 0.00 | 0.00 | 36 | 16.3 |
| 20260904141013 | 92 | 157 | 4.0 | 12.0 | 0.00 | 0.00 | 0.00 | 36 | 16.4 |
| 20260904140013 | 92 | 225 | 1.0 | 7.0 | 0.00 | 0.00 | 0.00 | 35 | 16.5 |
| 20260904135013 | 92 | 157 | 1.0 | 4.0 | 0.00 | 0.00 | 0.00 | 36 | 16.7 |
| 20260904132013 | 92 | 225 | 4.0 | 9.0 | 0.00 | 0.00 | 0.00 | 36 | 16.9 |
| 20260904131013 | 90 | 135 | 2.0 | 7.0 | 0.00 | 0.00 | 0.00 | 37 | 16.9 |
| 20260904130013 | 90 | 112 | 2.0 | 6.0 | 0.00 | 0.00 | 0.00 | 38 | 17.2 |
| 20260904124013 | 89 | 135 | 3.0 | 9.0 | 0.00 | 0.00 | 0.00 | 39 | 17.4 |
| 20260904123013 | 90 | 180 | 2.0 | 6.0 | 0.00 | 0.00 | 0.00 | 38 | 17.5 |
| 20260904122013 | 90 | 157 | 5.0 | 9.0 | 0.00 | 0.00 | 0.00 | 39 | 17.6 |
| 20260904121015 | 88 | 67 | 2.0 | 5.0 | 0.00 | 0.00 | 0.00 | 41 | 17.8 |
| 20260904120013 | 88 | 157 | 3.0 | 8.0 | 0.00 | 0.00 | 0.00 | 41 | 18.0 |
| 20260904115013 | 89 | 247 | 3.0 | 8.0 | 0.00 | 0.00 | 0.00 | 40 | 18.2 |
| 20260904114013 | 89 | 247 | 3.0 | 11.0 | 0.00 | 0.00 | 0.00 | 39 | 18.3 |
| 20260904112013 | 88 | 270 | 3.0 | 9.0 | 0.00 | 0.00 | 0.00 | 40 | 18.4 |
| 20260904111013 | 87 | 202 | 2.0 | 5.0 | 0.00 | 0.00 | 0.00 | 40 | 18.5 |
| 20260904105013 | 86 | 225 | 2.0 | 6.0 | 0.00 | 0.00 | 0.00 | 41 | 18.9 |
| 20260904104013 | 85 | 225 | 1.0 | 6.0 | 0.00 | 0.00 | 0.00 | 43 | 19.0 |
| 20260904103013 | 84 | 225 | 2.0 | 5.0 | 0.00 | 0.00 | 0.00 | 43 | 19.1 |
| 20260904102013 | 84 | 225 | 1.0 | 4.0 | 0.00 | 0.00 | 0.00 | 46 | 19.3 |
| 20260904100013 | 84 | 225 | 2.0 | 6.0 | 0.00 | 0.00 | 0.00 | 45 | 19.6 |
| 20260904094013 | 82 | 247 | 0.0 | 4.0 | 0.00 | 0.00 | 0.00 | 48 | 19.7 |
| 20260904093013 | 81 | 247 | 2.0 | 4.0 | 0.00 | 0.00 | 0.00 | 51 | 19.8 |
| 20260904092013 | 79 | 135 | 1.0 | 4.0 | 0.00 | 0.00 | 0.00 | 53 | 19.8 |
| 20260904091014 | 79 | 180 | 1.0 | 4.0 | 0.00 | 0.00 | 0.00 | 53 | 19.9 |
| 20260904090017 | 78 | 180 | 1.0 | 5.0 | 0.00 | 0.00 | 0.00 | 54 | 19.9 |
| 20260904085013 | 78 | 157 | 1.0 | 4.0 | 0.00 | 0.00 | 0.00 | 57 | 19.9 |
| 20260904083013 | 76 | 180 | 1.0 | 6.0 | 0.00 | 0.00 | 0.00 | 60 | 19.8 |
| 20260904082013 | 74 | 180 | 2.0 | 5.0 | 0.00 | 0.00 | 0.00 | 62 | 19.8 |
| 20260904081013 | 74 | 225 | 1.0 | 4.0 | 0.00 | 0.00 | 0.00 | 62 | 19.7 |
| 20260904080013 | 72 | 180 | 1.0 | 3.0 | 0.00 | 0.00 | 0.00 | 65 | 19.7 |
| 20260904075013 | 72 | 0 | 0.0 | 0.0 | 0.00 | 0.00 | 0.00 | 66 | 19.7 |
| 20260904073013 | 68 | 225 | 0.0 | 3.0 | 0.00 | 0.00 | 0.00 | 72 | 19.8 |
| 20260904072013 | 68 | 225 | 0.0 | 3.0 | 0.00 | 0.00 | 0.00 | 74 | 19.8 |
| 20260904071013 | 66 | 225 | 1.0 | 4.0 | 0.00 | 0.00 | 0.00 | 77 | 19.8 |
| 20260904070013 | 66 | 0 | 0.0 | 0.0 | 0.00 | 0.00 | 0.00 | 79 | 19.7 |
| 20260904064013 | 64 | 225 | 0.0 | 2.0 | 0.00 | 0.00 | 0.00 | 83 | 19.9 |
| 20260904063012 | 62 | 0 | 0.0 | 2.0 | 0.00 | 0.00 | 0.00 | 87 | 19.9 |
| 20260904062013 | 61 | 0 | 0.0 | 0.0 | 0.00 | 0.00 | 0.00 | 90 | 19.8 |
| 20260904061012 | 59 | 0 | 0.0 | 0.0 | 0.00 | 0.00 | 0.00 | 93 | 19.7 |
| 20260904060013 | 58 | 0 | 0.0 | 0.0 | 0.00 | 0.00 | 0.00 | 93 | 19.8 |
| 20260904055012 | 57 | 0 | 0.0 | 0.0 | 0.00 | 0.00 | 0.00 | 93 | 19.9 |
| 20260904054012 | 56 | 0 | 0.0 | 0.0 | 0.00 | 0.00 | 0.00 | 93 | 19.9 |
| 20260904053012 | 56 | 0 | 0.0 | 0.0 | 0.00 | 0.00 | 0.00 | 94 | 19.9 |
| 20260904052012 | 56 | 0 | 0.0 | 0.0 | 0.00 | 0.00 | 0.00 | 94 | 20.0 |
| 20260904050013 | 56 | 0 | 0.0 | 0.0 | 0.00 | 0.00 | 0.00 | 94 | 19.9 |
| 20260904045012 | 55 | 0 | 0.0 | 0.0 | 0.00 | 0.00 | 0.00 | 95 | 19.9 |
| 20260904044013 | 55 | 0 | 0.0 | 0.0 | 0.00 | 0.00 | 0.00 | 94 | 19.9 |
| 20260904043012 | 55 | 0 | 0.0 | 0.0 | 0.00 | 0.00 | 0.00 | 93 | 20.1 |
| 20260904042012 | 55 | 0 | 0.0 | 0.0 | 0.00 | 0.00 | 0.00 | 94 | 20.1 |
| 20260904041012 | 55 | 0 | 0.0 | 0.0 | 0.00 | 0.00 | 0.00 | 93 | 20.2 |
| 20260904040013 | 56 | 0 | 0.0 | 0.0 | 0.00 | 0.00 | 0.00 | 93 | 20.2 |
| 20260904033012 | 56 | 0 | 0.0 | 0.0 | 0.00 | 0.00 | 0.00 | 92 | 20.5 |
| 20260904032012 | 56 | 0 | 0.0 | 0.0 | 0.00 | 0.00 | 0.00 | 91 | 20.6 |
| 20260904031012 | 57 | 0 | 0.0 | 0.0 | 0.00 | 0.00 | 0.00 | 90 | 20.6 |
| 20260904030013 | 57 | 0 | 0.0 | 0.0 | 0.00 | 0.00 | 0.00 | 90 | 20.7 |